AAL158 KMIA-MMUN

Flight info

Callsign AAL158
Flight time N/A
Altitude 36000
Route GLADZ4 LULLS Y196 CANOA UB879 NOSAT
Aircraft B738/M-VGDW/C

Departure

Time N/A
Airport Miami International Airport (KMIA)

Arrival

Time 2026-05-03 21:11
Airport Cancún International Airport (MMUN)
Time Latitude Longitude Altitude Speed Heading
2026-05-03 20:15 24.40027 -82.54344 35927 ft 394 kts 233°
2026-05-03 20:15 24.36447 -82.58893 35926 ft 397 kts 233°
2026-05-03 20:16 24.32832 -82.63480 35927 ft 396 kts 233°
2026-05-03 20:16 24.29231 -82.68047 35928 ft 396 kts 233°
2026-05-03 20:17 24.25632 -82.72605 35928 ft 396 kts 232°
2026-05-03 20:17 24.22045 -82.77145 35923 ft 396 kts 233°
2026-05-03 20:18 24.18428 -82.81720 35918 ft 399 kts 233°
2026-05-03 20:18 24.14810 -82.86292 35915 ft 397 kts 232°
2026-05-03 20:19 24.11210 -82.90835 35915 ft 397 kts 233°
2026-05-03 20:19 24.07580 -82.95416 35913 ft 400 kts 233°
2026-05-03 20:20 24.03928 -83.00017 35911 ft 400 kts 232°
2026-05-03 20:20 24.00269 -83.04623 35913 ft 400 kts 232°
2026-05-03 20:21 23.96823 -83.09342 35912 ft 399 kts 236°
2026-05-03 20:21 23.93556 -83.14255 35910 ft 397 kts 237°
2026-05-03 20:22 23.90321 -83.19121 35910 ft 398 kts 237°
2026-05-03 20:22 23.87011 -83.24040 35911 ft 401 kts 237°
2026-05-03 20:23 23.83703 -83.28913 35911 ft 399 kts 236°
2026-05-03 20:23 23.80392 -83.33772 35911 ft 400 kts 236°
2026-05-03 20:24 23.77081 -83.38618 35911 ft 399 kts 237°
2026-05-03 20:24 23.73755 -83.43488 35911 ft 401 kts 236°
2026-05-03 20:25 23.70436 -83.48339 35910 ft 399 kts 236°
2026-05-03 20:25 23.67106 -83.53202 35911 ft 402 kts 236°
2026-05-03 20:26 23.63769 -83.58072 35911 ft 402 kts 236°
2026-05-03 20:26 23.60405 -83.62973 35911 ft 401 kts 237°
2026-05-03 20:27 23.57064 -83.67837 35912 ft 404 kts 236°
2026-05-03 20:27 23.53704 -83.72720 35911 ft 402 kts 236°
2026-05-03 20:28 23.50356 -83.77584 35913 ft 403 kts 236°
2026-05-03 20:28 23.46986 -83.82481 35912 ft 404 kts 236°
2026-05-03 20:29 23.43599 -83.87390 35913 ft 405 kts 236°
2026-05-03 20:29 23.40227 -83.92274 35914 ft 405 kts 236°
2026-05-03 20:30 23.36850 -83.97160 35917 ft 405 kts 236°
2026-05-03 20:30 23.33475 -84.02041 35920 ft 406 kts 236°
2026-05-03 20:31 23.30080 -84.06943 35916 ft 407 kts 236°
2026-05-03 20:31 23.26671 -84.11862 35917 ft 406 kts 236°
2026-05-03 20:32 23.23266 -84.16768 35915 ft 407 kts 236°
2026-05-03 20:32 23.19851 -84.21686 35912 ft 407 kts 236°
2026-05-03 20:33 23.16435 -84.26601 35912 ft 408 kts 236°
2026-05-03 20:33 23.13017 -84.31512 35913 ft 409 kts 236°
2026-05-03 20:34 23.09600 -84.36419 35916 ft 407 kts 236°
2026-05-03 20:34 23.06166 -84.41345 35911 ft 410 kts 236°
2026-05-03 20:35 23.02743 -84.46252 35912 ft 409 kts 236°
2026-05-03 20:35 22.99285 -84.51205 35915 ft 411 kts 236°
2026-05-03 20:36 22.95848 -84.56122 35916 ft 411 kts 236°
2026-05-03 20:36 22.92385 -84.61071 35920 ft 409 kts 236°
2026-05-03 20:37 22.88936 -84.65996 35916 ft 411 kts 236°
2026-05-03 20:37 22.85508 -84.70885 35919 ft 410 kts 236°
2026-05-03 20:38 22.82048 -84.75817 35916 ft 411 kts 236°
2026-05-03 20:38 22.78577 -84.80762 35913 ft 411 kts 236°
2026-05-03 20:39 22.75130 -84.85664 35914 ft 411 kts 236°
2026-05-03 20:39 22.71659 -84.90594 35911 ft 411 kts 236°
2026-05-03 20:40 22.68208 -84.95493 35911 ft 412 kts 236°
2026-05-03 20:40 22.64726 -85.00432 35911 ft 412 kts 236°
2026-05-03 20:41 22.61256 -85.05346 35912 ft 411 kts 236°
2026-05-03 20:41 22.57799 -85.10275 35910 ft 412 kts 236°
2026-05-03 20:42 22.54367 -85.15218 35910 ft 413 kts 236°
2026-05-03 20:42 22.50920 -85.20178 35911 ft 413 kts 236°
2026-05-03 20:43 22.47471 -85.25131 35911 ft 413 kts 236°
2026-05-03 20:43 22.44006 -85.30098 35911 ft 413 kts 236°
2026-05-03 20:44 22.40562 -85.35028 35911 ft 414 kts 236°
2026-05-03 20:44 22.37078 -85.40010 35910 ft 412 kts 236°
2026-05-03 20:44 22.35367 -85.42457 35776 ft 415 kts 236°
2026-05-03 20:45 22.33625 -85.44945 35551 ft 415 kts 236°
2026-05-03 20:45 22.31879 -85.47437 35328 ft 412 kts 236°
2026-05-03 20:45 22.30162 -85.49887 35109 ft 413 kts 236°
2026-05-03 20:45 22.28429 -85.52359 34891 ft 414 kts 236°
2026-05-03 20:46 22.26676 -85.54857 34669 ft 414 kts 236°
2026-05-03 20:46 22.24953 -85.57313 34451 ft 415 kts 236°
2026-05-03 20:46 22.23194 -85.59821 34231 ft 417 kts 236°
2026-05-03 20:46 22.21470 -85.62286 34015 ft 417 kts 237°
2026-05-03 20:47 22.19720 -85.64791 33796 ft 419 kts 236°
2026-05-03 20:47 22.17951 -85.67320 33577 ft 421 kts 236°
2026-05-03 20:47 22.16200 -85.69820 33360 ft 420 kts 236°
2026-05-03 20:47 22.14439 -85.72332 33031 ft 423 kts 236°
2026-05-03 20:48 22.12654 -85.74880 32345 ft 427 kts 236°
2026-05-03 20:48 22.10865 -85.77432 31602 ft 428 kts 236°
2026-05-03 20:48 22.09077 -85.79980 30822 ft 428 kts 236°
2026-05-03 20:48 22.07287 -85.82528 30040 ft 429 kts 236°
2026-05-03 20:49 22.05478 -85.85104 29250 ft 429 kts 236°
2026-05-03 20:49 22.03683 -85.87658 28478 ft 429 kts 236°
2026-05-03 20:49 22.01905 -85.90186 27720 ft 429 kts 236°
2026-05-03 20:49 22.00108 -85.92738 26958 ft 428 kts 236°
2026-05-03 20:50 21.98298 -85.95296 26209 ft 427 kts 235°
2026-05-03 20:50 21.96443 -85.97769 25603 ft 424 kts 232°
2026-05-03 20:50 21.94411 -86.00059 24990 ft 422 kts 227°
2026-05-03 20:50 21.92267 -86.02196 24379 ft 420 kts 225°
2026-05-03 20:51 21.90104 -86.04230 23774 ft 417 kts 224°
2026-05-03 20:51 21.87907 -86.06247 23158 ft 414 kts 224°
2026-05-03 20:51 21.85702 -86.08262 22545 ft 410 kts 224°
2026-05-03 20:51 21.83542 -86.10243 21945 ft 407 kts 224°
2026-05-03 20:52 21.81435 -86.12188 21311 ft 397 kts 224°
2026-05-03 20:52 21.79370 -86.14101 20722 ft 382 kts 224°
2026-05-03 20:52 21.77397 -86.15937 20128 ft 375 kts 224°
2026-05-03 20:52 21.75435 -86.17774 19534 ft 377 kts 224°
2026-05-03 20:53 21.73457 -86.19633 18936 ft 375 kts 224°
2026-05-03 20:53 21.71504 -86.21466 18334 ft 372 kts 224°
2026-05-03 20:53 21.69561 -86.23293 17737 ft 371 kts 224°
2026-05-03 20:53 21.67651 -86.25089 17149 ft 367 kts 224°
2026-05-03 20:54 21.66369 -86.26294 16750 ft 367 kts 224°
2026-05-03 20:54 21.61869 -86.30521 15401 ft 375 kts 223°
2026-05-03 20:54 21.59924 -86.32348 14747 ft 374 kts 224°
2026-05-03 20:55 21.57975 -86.34175 14147 ft 371 kts 223°
2026-05-03 20:55 21.56050 -86.35979 13546 ft 369 kts 223°
2026-05-03 20:55 21.54125 -86.37781 12947 ft 367 kts 223°
2026-05-03 20:55 21.52154 -86.39509 12356 ft 365 kts 219°
2026-05-03 20:56 21.50101 -86.41099 11763 ft 364 kts 217°
2026-05-03 20:56 21.47980 -86.42613 11190 ft 361 kts 216°
2026-05-03 20:56 21.45892 -86.44058 10945 ft 349 kts 215°
2026-05-03 20:56 21.43905 -86.45428 10928 ft 329 kts 216°
2026-05-03 20:57 21.42032 -86.46735 10929 ft 326 kts 216°
2026-05-03 20:57 21.40100 -86.48104 10925 ft 334 kts 216°
2026-05-03 20:57 21.38145 -86.49499 10922 ft 333 kts 216°
2026-05-03 20:57 21.36268 -86.50899 10922 ft 332 kts 221°
2026-05-03 20:58 21.34574 -86.52573 10920 ft 330 kts 229°
2026-05-03 20:58 21.33049 -86.54430 10919 ft 329 kts 232°
2026-05-03 20:58 21.31596 -86.56340 10920 ft 331 kts 233°
2026-05-03 20:58 21.30150 -86.58256 10921 ft 331 kts 233°
2026-05-03 20:59 21.28692 -86.60156 10922 ft 331 kts 233°
2026-05-03 20:59 21.27210 -86.62058 10924 ft 330 kts 232°
2026-05-03 20:59 21.25731 -86.63944 10921 ft 331 kts 232°
2026-05-03 20:59 21.24244 -86.65829 10873 ft 329 kts 231°
2026-05-03 21:00 21.22807 -86.67636 10509 ft 314 kts 231°
2026-05-03 21:00 21.22324 -86.68242 10375 ft 309 kts 232°
2026-05-03 21:00 21.20100 -86.71071 9709 ft 289 kts 232°
2026-05-03 21:00 21.18837 -86.72688 9236 ft 283 kts 232°
2026-05-03 21:01 21.17576 -86.74297 8663 ft 280 kts 232°
2026-05-03 21:01 21.16333 -86.75887 8098 ft 278 kts 231°
2026-05-03 21:01 21.15101 -86.77454 7537 ft 276 kts 231°
2026-05-03 21:01 21.13891 -86.79054 6957 ft 274 kts 236°
2026-05-03 21:02 21.13048 -86.80834 6382 ft 272 kts 256°
2026-05-03 21:02 21.13017 -86.82846 5813 ft 271 kts 283°
2026-05-03 21:02 21.13782 -86.84648 5340 ft 267 kts 302°
2026-05-03 21:02 21.14826 -86.86265 4862 ft 263 kts 303°
2026-05-03 21:03 21.15855 -86.87884 4430 ft 263 kts 302°
2026-05-03 21:03 21.16853 -86.89498 3961 ft 263 kts 302°
2026-05-03 21:03 21.17860 -86.91133 3520 ft 263 kts 302°
2026-05-03 21:03 21.18875 -86.92770 3091 ft 262 kts 302°
2026-05-03 21:04 21.19868 -86.94363 2929 ft 251 kts 303°
2026-05-03 21:04 21.20844 -86.95926 2937 ft 252 kts 302°
2026-05-03 21:04 21.21817 -86.97486 2933 ft 252 kts 302°
2026-05-03 21:04 21.22661 -86.99092 2931 ft 242 kts 290°
2026-05-03 21:05 21.22909 -87.00832 2929 ft 237 kts 260°
2026-05-03 21:05 21.22270 -87.02423 2928 ft 233 kts 230°
2026-05-03 21:05 21.21078 -87.03540 2936 ft 224 kts 212°
2026-05-03 21:05 21.19773 -87.04432 2926 ft 219 kts 211°
2026-05-03 21:06 21.18488 -87.05192 2920 ft 199 kts 198°
2026-05-03 21:06 21.17214 -87.05269 2930 ft 173 kts 162°
2026-05-03 21:06 21.16153 -87.04712 2936 ft 169 kts 144°
2026-05-03 21:06 21.15340 -87.03845 2954 ft 169 kts 125°
2026-05-03 21:07 21.14699 -87.02793 2923 ft 162 kts 123°
2026-05-03 21:07 21.14100 -87.01826 2952 ft 156 kts 124°
2026-05-03 21:07 21.13491 -87.00874 2806 ft 154 kts 123°
2026-05-03 21:07 21.12904 -86.99941 2558 ft 146 kts 124°
2026-05-03 21:08 21.12344 -86.99049 2404 ft 145 kts 123°
2026-05-03 21:08 21.11776 -86.98142 2203 ft 144 kts 123°
2026-05-03 21:08 21.11226 -86.97266 2016 ft 142 kts 124°
2026-05-03 21:08 21.10673 -86.96388 1838 ft 141 kts 124°
2026-05-03 21:09 21.10129 -86.95523 1641 ft 139 kts 124°
2026-05-03 21:09 21.09588 -86.94663 1459 ft 138 kts 125°
2026-05-03 21:09 21.09058 -86.93819 1293 ft 138 kts 124°
2026-05-03 21:09 21.08516 -86.92960 1097 ft 138 kts 124°
2026-05-03 21:10 21.07987 -86.92116 922 ft 137 kts 124°
2026-05-03 21:10 21.07455 -86.91272 752 ft 136 kts 124°
2026-05-03 21:10 21.06921 -86.90426 592 ft 146 kts 124°
2026-05-03 21:10 21.06339 -86.89510 402 ft 153 kts 125°
2026-05-03 21:11 21.05755 -86.88605 193 ft 136 kts 123°
2026-05-03 21:11 21.05251 -86.87787 61 ft 127 kts 124°
2026-05-03 21:11 21.04834 -86.87118 40 ft 81 kts 124°
2026-05-03 21:11 21.04599 -86.86743 40 ft 46 kts 124°
2026-05-03 21:12 21.04435 -86.86498 37 ft 33 kts 134°
2026-05-03 21:12 21.04247 -86.86363 39 ft 30 kts 154°
2026-05-03 21:12 21.04110 -86.86280 41 ft 20 kts 134°
2026-05-03 21:12 21.04002 -86.86243 41 ft 17 kts 209°
2026-05-03 21:13 21.03899 -86.86316 42 ft 16 kts 213°
2026-05-03 21:13 21.03806 -86.86380 42 ft 15 kts 214°
2026-05-03 21:13 21.03717 -86.86444 42 ft 15 kts 213°
2026-05-03 21:13 21.03614 -86.86518 43 ft 17 kts 215°
2026-05-03 21:14 21.03511 -86.86591 41 ft 17 kts 213°
2026-05-03 21:14 21.03402 -86.86667 38 ft 19 kts 213°
2026-05-03 21:14 21.03360 -86.86778 35 ft 18 kts 300°
2026-05-03 21:14 21.03432 -86.86893 34 ft 18 kts 303°
2026-05-03 21:15 21.03489 -86.86984 34 ft 11 kts 304°
2026-05-03 21:15 21.03540 -86.87035 33 ft 7 kts
2026-05-03 21:15 21.03580 -86.87014 33 ft 5 kts 32°
2026-05-03 21:15 21.03597 -86.87003 33 ft 0 kts 34°
2026-05-03 21:16 21.03601 -86.87000 33 ft 0 kts 34°